Location: Unspecified
(0.0000°N, 0.0000°E)
Time: 10:22:01
(UTC+02:00)

AO-40 - Visible Passes

Search period start: 26 July 2016 00:00
Search period end: 05 August 2016 00:00
Orbit: 964 x 58856 km, 7.8° (Epoch: 25 July)

Date Brightness Start Highest point End Pass type
(mag) Time Alt. Az. Time Alt. Az. Time Alt. Az.
27 Jul ? 02:59:49 21° ENE 02:59:49 21° ENE 03:06:04 10° E visible
27 Jul ? 06:56:26 10° E 13:32:50 89° S 21:44:44 36° ESE visible
28 Jul ? 08:30:36 10° E 14:56:39 71° ESE 16:35:07 10° E visible
30 Jul ? 07:28:31 10° WNW 07:54:59 78° N 18:26:21 10° W visible
31 Jul ? 02:33:37 14° ENE 02:33:37 14° ENE 02:36:08 10° ENE visible
31 Jul ? 06:49:54 10° E 13:23:55 89° S 21:18:23 23° ESE visible
01 Aug ? 08:21:54 10° E 14:28:59 67° ESE 16:06:37 10° E visible
03 Aug ? 07:00:41 10° WNW 07:23:37 77° N 18:17:23 10° W visible
04 Aug ? 06:42:49 10° E 13:15:06 88° S 20:52:02 13° E visible
